sat.trackr.live / text

‹ back to catalog

STARLINK-31107

NORAD 58684 · 2023-211T

PAYLOAD ACTIVE UNKNOWN

§ Identity

Operator
Country
US
Launch date
2023-12-29
Launch site
AFETR
Launch vehicle
Mass (kg)
RCS (m²)

Purposes: comms

External: N2YO · Heavens-Above · Gunter

§ Orbital elements

Epoch: 2026-09-20T04:08:16.821024Z

Period
94.27 min
Inclination
43.0046°
Eccentricity
0.0001166
Mean motion
15.27576103 rev/d
Perigee alt
482.3 km
Apogee alt
483.9 km
Semi-major
6,861.2 km
B*
-1.3207e-5
RAAN
67.3327°
Arg perigee
271.1639°
Mean anomaly
88.9079°
Rev number
15,220

§ Raw data

STARLINK-311071 58684U 23211T   26263.17241691 -.00000625  00000+0 -13207-4 0  99912 58684  43.0046  67.3327 0001166 271.1639  88.9079 15.27576103152209

JSON: /api/v1/satellites/58684 · /tle

For live sub-satellite position, see the globe view (requires WebGL).

§ Visibility from observer

Set your observer location to see the next 7 days of passes ≥ 10°. The values pass through the URL so the page stays shareable.

No JS? Fill the form by hand. The geolocation button needs JavaScript.